This is the latest recevied weather packets stored in our database for station/object W4SKW. If no packets are shown the sender has not sent any weather packets the latest 10 day(s).
| Time | Temp. | Humidity | Pressure | Rain* | Wind** | Luminosity | Snow |
|---|---|---|---|---|---|---|---|
| 1777915595 | 23.89° C | 50% | 1017.8 hPa | 0 mm | - | 784 W/m² | - |
| 1777915292 | 23.33° C | 49% | 1017.7 hPa | 0 mm | - | 762 W/m² | - |
| 1777914988 | 23.33° C | 48% | 1017.8 hPa | 0 mm | - | 759 W/m² | - |
| 1777914685 | 23.33° C | 52% | 1017.8 hPa | 0 mm | - | 730 W/m² | - |
| 1777914381 | 22.78° C | 54% | 1018.1 hPa | 0 mm | - | 747 W/m² | - |
| 1777914079 | 23.33° C | 47% | 1018.2 hPa | 0 mm | - | 671 W/m² | - |
| 1777913775 | 23.33° C | 47% | 1018.2 hPa | 0 mm | - | 671 W/m² | - |
| 1777913472 | 22.22° C | 55% | 1018.2 hPa | 0 mm | - | 733 W/m² | - |
| 1777913168 | 22.78° C | 49% | 1018.2 hPa | 0 mm | - | 700 W/m² | - |
| 1777912864 | 22.78° C | 50% | 1018.4 hPa | 0 mm | - | 750 W/m² | - |
| 1777912561 | 22.22° C | 52% | 1018.4 hPa | 0 mm | - | 732 W/m² | - |
| 1777912257 | 22.22° C | 52% | 1018.4 hPa | 0 mm | - | 710 W/m² | - |
| 1777911953 | 22.22° C | 57% | 1018.4 hPa | 0 mm | - | 735 W/m² | - |
| 1777911650 | 21.67° C | 51% | 1018.4 hPa | 0 mm | - | 715 W/m² | - |
| 1777911346 | 21.67° C | 55% | 1018.4 hPa | 0 mm | - | 719 W/m² | - |
| 1777911044 | 20.56° C | 54% | 1018.9 hPa | 0 mm | - | 694 W/m² | - |
| 1777910741 | 20.56° C | 54% | 1018.9 hPa | 0 mm | - | 694 W/m² | - |
| 1777910438 | 20.56° C | 52% | 1019 hPa | 0 mm | - | 695 W/m² | - |
| 1777910134 | 20.56° C | 55% | 1018.7 hPa | 0 mm | - | 681 W/m² | - |
| 1777909832 | 20.56° C | 58% | 1018.9 hPa | 0 mm | - | 630 W/m² | - |
| 1777909527 | 20.56° C | 60% | 1018.8 hPa | 0 mm | - | 660 W/m² | - |
| 1777909225 | 20° C | 60% | 1018.8 hPa | 0 mm | - | 645 W/m² | - |
| 1777908894 | 18.33° C | 63% | 1018.9 hPa | 0 mm | - | 206 W/m² | - |
| 1777908591 | 18.33° C | 63% | 1018.9 hPa | 0 mm | - | 206 W/m² | - |
| 1777908288 | 18.33° C | 61% | 1019.1 hPa | 0 mm | - | 552 W/m² | - |
* Rain latest hour (hover to see other rain measurements)
** Current wind speed in m/s (hover to see current wind gust speed)